"Period start","avg(HW err(1)/warn(2) (#))","avg(Visibility (m))","avg(Weather code (#))","avg(Precip intensity (mm/h))","min(HW err(1)/warn(2) (#))","max(HW err(1)/warn(2) (#))","std(HW err(1)/warn(2) (#))","med(HW err(1)/warn(2) (#))","min(Visibility (m))","max(Visibility (m))","std(Visibility (m))","med(Visibility (m))","min(Weather code (#))","max(Weather code (#))","std(Weather code (#))","med(Weather code (#))","min(Precip intensity (mm/h))","max(Precip intensity (mm/h))","std(Precip intensity (mm/h))","med(Precip intensity (mm/h))"
2016-10-10 00:00:00,2,50000,0,0.00,2,2,0,2,50000,50000,0,50000,0,0,0,0,0.00,0.00,0.00,0.00
2016-10-10 00:10:00,2,49647,0,0.00,2,2,0,2,47145,50000,848,50000,0,0,0,0,0.00,0.00,0.00,0.00
2016-10-10 00:20:00,2,48135,16,0.00,2,2,0,2,40216,50000,3232,50000,0,41,20,0,0.00,0.00,0.00,0.00
2016-10-10 00:30:00,2,49261,0,0.00,2,2,0,2,44562,50000,1671,50000,0,0,0,0,0.00,0.00,0.00,0.00
2016-10-10 00:40:00,2,49922,0,0.00,2,2,0,2,49216,50000,235,50000,0,0,0,0,0.00,0.00,0.00,0.00
2016-10-10 00:50:00,2,48680,0,0.00,2,2,0,2,41614,50000,2449,49720,0,0,0,0,0.00,0.00,0.00,0.00
2016-10-10 01:00:00,2,49916,0,0.00,2,2,0,2,49512,50000,171,50000,0,0,0,0,0.00,0.00,0.00,0.00
2016-10-10 01:10:00,2,49052,0,0.00,2,2,0,2,43778,50000,2008,50000,0,0,0,0,0.00,0.00,0.00,0.00
2016-10-10 01:20:00,2,48152,0,0.00,2,2,0,2,42836,50000,2515,49389,0,0,0,0,0.00,0.00,0.00,0.00
2016-10-10 01:30:00,2,50000,0,0.00,2,2,0,2,50000,50000,0,50000,0,0,0,0,0.00,0.00,0.00,0.00
2016-10-10 01:40:00,2,49648,0,0.00,2,2,0,2,46477,50000,1057,50000,0,0,0,0,0.00,0.00,0.00,0.00
2016-10-10 01:50:00,2,49994,0,0.00,2,2,0,2,49936,50000,19,50000,0,0,0,0,0.00,0.00,0.00,0.00
2016-10-10 02:00:00,2,49926,0,0.00,2,2,0,2,49259,50000,222,50000,0,0,0,0,0.00,0.00,0.00,0.00
2016-10-10 02:10:00,2,49932,0,0.00,2,2,0,2,49319,50000,204,50000,0,0,0,0,0.00,0.00,0.00,0.00
2016-10-10 02:20:00,2,50000,0,0.00,2,2,0,2,50000,50000,0,50000,0,0,0,0,0.00,0.00,0.00,0.00
2016-10-10 02:30:00,2,50000,0,0.00,2,2,0,2,50000,50000,0,50000,0,0,0,0,0.00,0.00,0.00,0.00
2016-10-10 02:40:00,2,49697,0,0.00,2,2,0,2,46973,50000,908,50000,0,0,0,0,0.00,0.00,0.00,0.00
2016-10-10 02:50:00,2,49899,0,0.00,2,2,0,2,48991,50000,303,50000,0,0,0,0,0.00,0.00,0.00,0.00
2016-10-10 03:00:00,2,49351,0,0.00,2,2,0,2,46798,50000,1051,50000,0,0,0,0,0.00,0.00,0.00,0.00
2016-10-10 03:10:00,2,50000,0,0.00,2,2,0,2,50000,50000,0,50000,0,0,0,0,0.00,0.00,0.00,0.00
2016-10-10 03:20:00,2,48809,0,0.00,2,2,0,2,42005,50000,2396,50000,0,0,0,0,0.00,0.00,0.00,0.00
2016-10-10 03:30:00,2,49518,0,0.00,2,2,0,2,46134,50000,1144,50000,0,0,0,0,0.00,0.00,0.00,0.00
2016-10-10 03:40:00,2,49832,0,0.00,2,2,0,2,48315,50000,506,50000,0,0,0,0,0.00,0.00,0.00,0.00
2016-10-10 03:50:00,2,49820,0,0.00,2,2,0,2,49012,50000,361,50000,0,0,0,0,0.00,0.00,0.00,0.00
2016-10-10 04:00:00,2,50000,0,0.00,2,2,0,2,50000,50000,0,50000,0,0,0,0,0.00,0.00,0.00,0.00
2016-10-10 04:10:00,2,49830,0,0.00,2,2,0,2,48295,50000,512,50000,0,0,0,0,0.00,0.00,0.00,0.00
2016-10-10 04:20:00,2,49884,0,0.00,2,2,0,2,49072,50000,279,50000,0,0,0,0,0.00,0.00,0.00,0.00
2016-10-10 04:30:00,2,49813,0,0.00,2,2,0,2,48840,50000,387,50000,0,0,0,0,0.00,0.00,0.00,0.00
2016-10-10 04:40:00,2,49789,0,0.00,2,2,0,2,47888,50000,634,50000,0,0,0,0,0.00,0.00,0.00,0.00
2016-10-10 04:50:00,2,49918,0,0.00,2,2,0,2,49179,50000,246,50000,0,0,0,0,0.00,0.00,0.00,0.00
2016-10-10 05:00:00,2,49719,0,0.00,2,2,0,2,47190,50000,843,50000,0,0,0,0,0.00,0.00,0.00,0.00
2016-10-10 05:10:00,2,47914,0,0.00,2,2,0,2,30141,50000,5932,50000,0,0,0,0,0.00,0.00,0.00,0.00
2016-10-10 05:20:00,2,49361,0,0.00,2,2,0,2,45651,50000,1265,49859,0,0,0,0,0.00,0.00,0.00,0.00
2016-10-10 05:30:00,2,50000,0,0.00,2,2,0,2,50000,50000,0,50000,0,0,0,0,0.00,0.00,0.00,0.00
2016-10-10 05:40:00,2,49859,0,0.00,2,2,0,2,48587,50000,424,50000,0,0,0,0,0.00,0.00,0.00,0.00
2016-10-10 05:50:00,2,50000,0,0.00,2,2,0,2,50000,50000,0,50000,0,0,0,0,0.00,0.00,0.00,0.00
2016-10-10 06:00:00,2,50000,0,0.00,2,2,0,2,50000,50000,0,50000,0,0,0,0,0.00,0.00,0.00,0.00
2016-10-10 06:10:00,2,50000,0,0.00,2,2,0,2,50000,50000,0,50000,0,0,0,0,0.00,0.00,0.00,0.00
2016-10-10 06:20:00,2,50000,0,0.00,2,2,0,2,50000,50000,0,50000,0,0,0,0,0.00,0.00,0.00,0.00
2016-10-10 06:30:00,2,50000,0,0.00,2,2,0,2,50000,50000,0,50000,0,0,0,0,0.00,0.00,0.00,0.00
2016-10-10 06:40:00,2,50000,0,0.00,2,2,0,2,50000,50000,0,50000,0,0,0,0,0.00,0.00,0.00,0.00
2016-10-10 06:50:00,2,50000,0,0.00,2,2,0,2,50000,50000,0,50000,0,0,0,0,0.00,0.00,0.00,0.00
2016-10-10 07:00:00,2,50000,0,0.00,2,2,0,2,50000,50000,0,50000,0,0,0,0,0.00,0.00,0.00,0.00
2016-10-10 07:10:00,2,50000,0,0.00,2,2,0,2,50000,50000,0,50000,0,0,0,0,0.00,0.00,0.00,0.00
2016-10-10 07:20:00,2,50000,0,0.00,2,2,0,2,50000,50000,0,50000,0,0,0,0,0.00,0.00,0.00,0.00
2016-10-10 07:30:00,2,49587,0,0.00,2,2,0,2,47630,50000,837,50000,0,0,0,0,0.00,0.00,0.00,0.00
2016-10-10 07:40:00,2,50000,0,0.00,2,2,0,2,50000,50000,0,50000,0,0,0,0,0.00,0.00,0.00,0.00
2016-10-10 07:50:00,2,49953,0,0.00,2,2,0,2,49528,50000,142,50000,0,0,0,0,0.00,0.00,0.00,0.00
2016-10-10 08:00:00,2,50000,0,0.00,2,2,0,2,50000,50000,0,50000,0,0,0,0,0.00,0.00,0.00,0.00
2016-10-10 08:10:00,2,50000,0,0.00,2,2,0,2,50000,50000,0,50000,0,0,0,0,0.00,0.00,0.00,0.00
2016-10-10 08:20:00,2,49368,0,0.00,2,2,0,2,48087,50000,814,50000,0,0,0,0,0.00,0.00,0.00,0.00
2016-10-10 08:30:00,2,47931,0,0.00,2,2,0,2,42293,50000,2412,48816,0,0,0,0,0.00,0.00,0.00,0.00
2016-10-10 08:40:00,2,42434,0,0.00,2,2,0,2,35162,50000,5206,44862,0,0,0,0,0.00,0.00,0.00,0.00
2016-10-10 08:50:00,2,44042,0,0.00,2,2,0,2,40047,49973,2765,43902,0,0,0,0,0.00,0.00,0.00,0.00
2016-10-10 09:00:00,2,45628,0,0.00,2,2,0,2,39492,50000,3536,45832,0,0,0,0,0.00,0.00,0.00,0.00
2016-10-10 09:10:00,2,46547,0,0.00,2,2,0,2,42374,50000,2795,45648,0,0,0,0,0.00,0.00,0.00,0.00
2016-10-10 09:20:00,2,43660,0,0.00,2,2,0,2,36009,50000,4840,43318,0,0,0,0,0.00,0.00,0.00,0.00
2016-10-10 09:30:00,2,38892,0,0.00,2,2,0,2,32096,44478,3542,39499,0,0,0,0,0.00,0.00,0.00,0.00
2016-10-10 09:40:00,2,40310,0,0.00,2,2,0,2,32901,46943,4651,40857,0,0,0,0,0.00,0.00,0.00,0.00
2016-10-10 09:50:00,2,39738,0,0.00,2,2,0,2,34896,43737,3129,39701,0,0,0,0,0.00,0.00,0.00,0.00
2016-10-10 10:00:00,2,42141,0,0.00,2,2,0,2,34320,46572,3826,43646,0,0,0,0,0.00,0.00,0.00,0.00
2016-10-10 10:10:00,2,38299,0,0.00,2,2,0,2,32543,46559,4410,37411,0,0,0,0,0.00,0.00,0.00,0.00
2016-10-10 10:20:00,2,39774,0,0.00,2,2,0,2,35928,45580,3355,38607,0,0,0,0,0.00,0.00,0.00,0.00
2016-10-10 10:30:00,2,38606,0,0.00,2,2,0,2,32479,43850,3761,38162,0,0,0,0,0.00,0.00,0.00,0.00
2016-10-10 10:40:00,2,36507,0,0.00,2,2,0,2,29881,40935,3482,37154,0,0,0,0,0.00,0.00,0.00,0.00
2016-10-10 10:50:00,2,32231,0,0.00,2,2,0,2,26747,37804,3605,33078,0,0,0,0,0.00,0.00,0.00,0.00
2016-10-10 11:00:00,2,31222,0,0.00,2,2,0,2,28631,34027,1727,30839,0,0,0,0,0.00,0.00,0.00,0.00
2016-10-10 11:10:00,2,34893,0,0.00,2,2,0,2,29078,40129,3209,34940,0,0,0,0,0.00,0.00,0.00,0.00
2016-10-10 11:20:00,2,36052,0,0.00,2,2,0,2,29678,42222,3753,36240,0,0,0,0,0.00,0.00,0.00,0.00
2016-10-10 11:30:00,2,40429,0,0.00,2,2,0,2,33928,46888,4496,41558,0,0,0,0,0.00,0.00,0.00,0.00
2016-10-10 11:40:00,2,39667,0,0.00,2,2,0,2,33911,48169,3923,39442,0,0,0,0,0.00,0.00,0.00,0.00
2016-10-10 11:50:00,2,39901,0,0.00,2,2,0,2,33884,46827,3856,39387,0,0,0,0,0.00,0.00,0.00,0.00
2016-10-10 12:00:00,2,40785,0,0.00,2,2,0,2,31934,50000,4671,41842,0,0,0,0,0.00,0.00,0.00,0.00
2016-10-10 12:10:00,2,42127,0,0.00,2,2,0,2,36108,50000,4974,41399,0,0,0,0,0.00,0.00,0.00,0.00
2016-10-10 12:20:00,2,45049,0,0.00,2,2,0,2,38446,49813,3653,46064,0,0,0,0,0.00,0.00,0.00,0.00
2016-10-10 12:30:00,2,43813,0,0.00,2,2,0,2,38430,49042,3331,44097,0,0,0,0,0.00,0.00,0.00,0.00
2016-10-10 12:40:00,2,42385,0,0.00,2,2,0,2,37468,50000,3537,41976,0,0,0,0,0.00,0.00,0.00,0.00
2016-10-10 12:50:00,2,41180,0,0.00,2,2,0,2,34169,49736,4490,40534,0,0,0,0,0.00,0.00,0.00,0.00
2016-10-10 13:00:00,2,38988,0,0.00,2,2,0,2,33382,42884,3250,40228,0,0,0,0,0.00,0.00,0.00,0.00
2016-10-10 13:10:00,2,38252,0,0.00,2,2,0,2,30126,45671,4691,38339,0,0,0,0,0.00,0.00,0.00,0.00
2016-10-10 13:20:00,2,40649,0,0.00,2,2,0,2,33439,47426,4335,40154,0,0,0,0,0.00,0.00,0.00,0.00
2016-10-10 13:30:00,2,39120,0,0.00,2,2,0,2,32956,45517,4043,38708,0,0,0,0,0.00,0.00,0.00,0.00
2016-10-10 13:40:00,2,38483,0,0.00,2,2,0,2,35491,42971,1975,38646,0,0,0,0,0.00,0.00,0.00,0.00
2016-10-10 13:50:00,2,37228,0,0.00,2,2,0,2,31734,42847,3076,37542,0,0,0,0,0.00,0.00,0.00,0.00
2016-10-10 14:00:00,2,39619,0,0.00,2,2,0,2,34427,46481,3909,39689,0,0,0,0,0.00,0.00,0.00,0.00
2016-10-10 14:10:00,2,38456,0,0.00,2,2,0,2,34403,43062,2493,38852,0,0,0,0,0.00,0.00,0.00,0.00
2016-10-10 14:20:00,2,36921,0,0.00,2,2,0,2,34559,40003,1899,36904,0,0,0,0,0.00,0.00,0.00,0.00
2016-10-10 14:30:00,2,37576,0,0.00,2,2,0,2,30024,42771,4615,38419,0,0,0,0,0.00,0.00,0.00,0.00
2016-10-10 14:40:00,2,37723,0,0.00,2,2,0,2,30081,47052,4858,37884,0,0,0,0,0.00,0.00,0.00,0.00
2016-10-10 14:50:00,2,44317,0,0.00,2,2,0,2,38053,49848,3128,44822,0,0,0,0,0.00,0.00,0.00,0.00
2016-10-10 15:00:00,2,42888,0,0.00,2,2,0,2,39054,49367,3301,41483,0,0,0,0,0.00,0.00,0.00,0.00
2016-10-10 15:10:00,2,45199,0,0.00,2,2,0,2,40331,49260,3089,45666,0,0,0,0,0.00,0.00,0.00,0.00
2016-10-10 15:20:00,2,43435,0,0.00,2,2,0,2,37886,47323,3313,44170,0,0,0,0,0.00,0.00,0.00,0.00
2016-10-10 15:30:00,2,42584,0,0.00,2,2,0,2,37422,46178,2808,43098,0,0,0,0,0.00,0.00,0.00,0.00
2016-10-10 15:40:00,2,46278,0,0.00,2,2,0,2,39662,50000,3579,46696,0,0,0,0,0.00,0.00,0.00,0.00
2016-10-10 15:50:00,2,45779,0,0.00,2,2,0,2,38700,50000,3890,45920,0,0,0,0,0.00,0.00,0.00,0.00
2016-10-10 16:00:00,2,44892,0,0.00,2,2,0,2,42413,45911,996,45140,0,0,0,0,0.00,0.00,0.00,0.00
2016-10-10 16:10:00,2,43840,0,0.00,2,2,0,2,36749,50000,3355,44129,0,0,0,0,0.00,0.00,0.00,0.00
2016-10-10 16:20:00,2,42070,0,0.00,2,2,0,2,36423,45785,3056,42754,0,0,0,0,0.00,0.00,0.00,0.00
2016-10-10 16:30:00,2,47547,0,0.00,2,2,0,2,44248,50000,2494,48035,0,0,0,0,0.00,0.00,0.00,0.00
2016-10-10 16:40:00,2,47001,0,0.00,2,2,0,2,41217,50000,2397,47034,0,0,0,0,0.00,0.00,0.00,0.00
2016-10-10 16:50:00,2,45245,0,0.00,2,2,0,2,41823,48374,2237,45558,0,0,0,0,0.00,0.00,0.00,0.00
2016-10-10 17:00:00,2,44317,0,0.00,2,2,0,2,34882,50000,4952,44582,0,0,0,0,0.00,0.00,0.00,0.00
2016-10-10 17:10:00,2,42345,0,0.00,2,2,0,2,39411,47114,2699,41545,0,0,0,0,0.00,0.00,0.00,0.00
2016-10-10 17:20:00,2,40230,0,0.00,2,2,0,2,34779,46441,3050,40342,0,0,0,0,0.00,0.00,0.00,0.00
2016-10-10 17:30:00,2,37543,0,0.00,2,2,0,2,31219,42993,4319,37998,0,0,0,0,0.00,0.00,0.00,0.00
2016-10-10 17:40:00,2,33826,4,0.01,2,2,0,2,19156,47654,10080,32094,0,40,12,0,0.00,0.05,0.02,0.00
2016-10-10 17:50:00,2,29241,64,0.00,2,2,0,2,24356,32173,2494,29908,41,77,16,71,0.00,0.00,0.00,0.00
2016-10-10 18:00:00,2,35870,30,0.00,2,2,0,2,27453,39697,3737,36413,0,77,37,0,0.00,0.00,0.00,0.00
2016-10-10 18:10:00,2,31909,0,0.00,2,2,0,2,28165,36387,2888,31850,0,0,0,0,0.00,0.00,0.00,0.00
2016-10-10 18:20:00,2,27014,0,0.00,2,2,0,2,24175,30460,2006,27168,0,0,0,0,0.00,0.00,0.00,0.00
2016-10-10 18:30:00,2,34381,0,0.00,2,2,0,2,27879,42836,5024,32652,0,0,0,0,0.00,0.00,0.00,0.00
2016-10-10 18:40:00,2,29097,0,0.00,2,2,0,2,23125,34853,3981,30215,0,0,0,0,0.00,0.00,0.00,0.00
2016-10-10 18:50:00,2,19025,0,0.00,2,2,0,2,16340,22548,1842,18492,0,0,0,0,0.00,0.00,0.00,0.00
2016-10-10 19:00:00,2,16940,0,0.00,2,2,0,2,15466,18806,977,16964,0,0,0,0,0.00,0.00,0.00,0.00
2016-10-10 19:10:00,2,17458,0,0.00,2,2,0,2,14588,21300,1858,16954,0,0,0,0,0.00,0.00,0.00,0.00
2016-10-10 19:20:00,2,18097,0,0.00,2,2,0,2,16916,19802,945,17818,0,0,0,0,0.00,0.00,0.00,0.00
2016-10-10 19:30:00,2,19227,0,0.00,2,2,0,2,16323,23526,1914,18518,0,0,0,0,0.00,0.00,0.00,0.00
2016-10-10 19:40:00,2,19960,0,0.00,2,2,0,2,16610,22671,2014,20538,0,0,0,0,0.00,0.00,0.00,0.00
2016-10-10 19:50:00,2,16327,0,0.00,2,2,0,2,15079,18580,1307,15702,0,0,0,0,0.00,0.00,0.00,0.00
2016-10-10 20:00:00,2,17014,0,0.00,2,2,0,2,14754,18740,1388,17176,0,0,0,0,0.00,0.00,0.00,0.00
2016-10-10 20:10:00,2,19327,0,0.00,2,2,0,2,17008,22581,1671,19167,0,0,0,0,0.00,0.00,0.00,0.00
2016-10-10 20:20:00,2,24498,0,0.00,2,2,0,2,22676,27697,1455,24116,0,0,0,0,0.00,0.00,0.00,0.00
2016-10-10 20:30:00,2,32515,0,0.00,2,2,0,2,26773,39260,3780,31364,0,0,0,0,0.00,0.00,0.00,0.00
2016-10-10 20:40:00,2,29177,0,0.00,2,2,0,2,25999,33328,1939,28843,0,0,0,0,0.00,0.00,0.00,0.00
2016-10-10 20:50:00,2,28354,0,0.00,2,2,0,2,26046,31295,1576,28226,0,0,0,0,0.00,0.00,0.00,0.00
2016-10-10 21:00:00,2,22209,0,0.00,2,2,0,2,20330,25410,1405,22134,0,0,0,0,0.00,0.00,0.00,0.00
2016-10-10 21:10:00,2,21635,0,0.00,2,2,0,2,19629,23457,1087,21878,0,0,0,0,0.00,0.00,0.00,0.00
2016-10-10 21:20:00,2,20694,0,0.00,2,2,0,2,18494,21919,1161,21104,0,0,0,0,0.00,0.00,0.00,0.00
2016-10-10 21:30:00,2,20389,0,0.00,2,2,0,2,18317,22692,1210,20162,0,0,0,0,0.00,0.00,0.00,0.00
2016-10-10 21:40:00,2,21910,0,0.00,2,2,0,2,19909,23951,1344,21750,0,0,0,0,0.00,0.00,0.00,0.00
2016-10-10 21:50:00,2,22168,0,0.00,2,2,0,2,18741,25056,1533,22077,0,0,0,0,0.00,0.00,0.00,0.00
2016-10-10 22:00:00,2,20788,0,0.00,2,2,0,2,19428,23448,1222,20478,0,0,0,0,0.00,0.00,0.00,0.00
2016-10-10 22:10:00,2,20487,0,0.00,2,2,0,2,18953,21839,917,20581,0,0,0,0,0.00,0.00,0.00,0.00
2016-10-10 22:20:00,2,21467,0,0.00,2,2,0,2,20001,23522,1081,21394,0,0,0,0,0.00,0.00,0.00,0.00
2016-10-10 22:30:00,2,24260,0,0.00,2,2,0,2,22702,25863,1092,24096,0,0,0,0,0.00,0.00,0.00,0.00
2016-10-10 22:40:00,2,23606,0,0.00,2,2,0,2,20367,27024,1726,23482,0,0,0,0,0.00,0.00,0.00,0.00
2016-10-10 22:50:00,2,24753,0,0.00,2,2,0,2,23293,26946,983,24580,0,0,0,0,0.00,0.00,0.00,0.00
2016-10-10 23:00:00,2,22321,0,0.00,2,2,0,2,19146,25346,1884,22008,0,0,0,0,0.00,0.00,0.00,0.00
2016-10-10 23:10:00,2,21003,0,0.00,2,2,0,2,19358,22307,954,21187,0,0,0,0,0.00,0.00,0.00,0.00
2016-10-10 23:20:00,2,21411,0,0.00,2,2,0,2,18616,29000,2861,20980,0,0,0,0,0.00,0.00,0.00,0.00
2016-10-10 23:30:00,2,20569,0,0.00,2,2,0,2,18033,24300,2030,20202,0,0,0,0,0.00,0.00,0.00,0.00
2016-10-10 23:40:00,2,20088,0,0.00,2,2,0,2,17807,25151,2065,19648,0,0,0,0,0.00,0.00,0.00,0.00
2016-10-10 23:50:00,2,20242,0,0.00,2,2,0,2,18858,23382,1247,19882,0,0,0,0,0.00,0.00,0.00,0.00
